Tracking 19832 objects as of 26-Aug-2019
HD Live streaming from Space Station
objects crossing your sky now

BLOCK DM-SL R/B

Track BLOCK DM-SL R/B now!


NORAD ID: 29046
Int'l Code: 2006-010B
Perigee: 1,660.5 km
Apogee: 35,629.5 km
Inclination: 0.2 °
Period: 656.3 minutes
Semi major axis: 25015 km
RCS: 20.8191 m2 (large)
Launch date: April 12, 2006
Source: Sea Launch (SEAL)
Launch site: SEA LAUNCH (SEAL)

Note: This is a ROCKET BODY
aabbcc
Your satellite tracking list
Your tracking list is empty




NASA's NSSDC Master Catalog

Two Line Element Set (TLE):
1 29046U 06010B   19237.86230035 -.00000262  00000-0 -42402-1 0  9992
2 29046   0.1593 126.9544 6789438  43.6208 285.3938  2.19419897107185
Source of the keplerian elements: AFSPC